Date String (YYYY-MM-DD hh:mm:ss) UTC,Instrument flags,Ambient pressure (hPa),Sample flow (lpm),Bypass flow (lpm),Sample temperature (°C),Ambient temperature (°C),ASC tube jacket temperature (°C),LED temperature (°C),Box temperature (°C),Sample RH (%),Span deviation,Mass concentration (μg/m³),Mass concentration (μg/m³),Mass concentration (μg/m³)
DateTimeUTC,F1_M11,P_M11,Q1_M11,Q2_M11,T1_M11,T2_M11,T3_M11,T4_M11,T5_M11,U1_M11,ZSPAN_M11,X0_M11,X2_M11,X1_M11
2023-04-04 08:00:00,,0812.7,4.99,0.00,22.4,20.5,00.0,30.9,23.7,17.4,0000.0,0009.78,0003.00,0002.25
2023-04-04 08:01:00,,0812.7,5.00,0.00,22.4,20.6,00.0,30.9,23.9,17.4,0000.0,0009.66,0002.84,0002.15
2023-04-04 08:02:00,,0812.6,5.02,0.00,22.5,21.7,00.0,30.8,24.3,17.4,0000.0,0009.80,0002.70,0002.04
2023-04-04 08:03:00,,0812.7,4.98,0.00,22.7,22.8,00.0,30.8,24.7,17.2,0000.0,0009.45,0002.57,0001.96
2023-04-04 08:04:00,,0812.7,5.01,0.00,22.8,23.1,00.0,30.9,24.6,17.1,0000.0,0008.28,0002.44,0001.90
2023-04-04 08:05:00,,0812.6,5.00,0.00,22.7,22.8,00.0,30.9,24.4,17.1,0000.0,0008.11,0002.41,0001.84
2023-04-04 08:06:00,,0812.6,4.98,0.00,22.7,22.4,00.0,31.0,24.3,17.1,0000.0,0007.59,0002.33,0001.78
2023-04-04 08:07:00,,0812.6,5.00,0.00,22.6,22.0,00.0,31.0,24.1,17.1,0000.0,0007.40,0002.27,0001.75
2023-04-04 08:08:00,,0812.6,5.00,0.00,22.6,21.6,00.0,31.0,24.1,17.1,0000.0,0007.32,0002.26,0001.76
2023-04-04 08:09:00,,0812.8,5.00,0.00,22.6,21.3,00.0,31.0,24.0,17.1,0000.0,0007.26,0002.28,0001.77
2023-04-04 08:10:00,,0812.7,4.99,0.00,22.5,21.0,00.0,31.0,24.0,17.1,0000.0,0007.23,0002.29,0001.78
2023-04-04 08:11:00,,0812.7,5.03,0.00,22.5,20.9,00.0,31.0,23.9,17.1,0000.0,0007.07,0002.27,0001.81
2023-04-04 08:12:00,,0812.7,4.99,0.00,22.4,20.9,00.0,30.9,23.9,17.1,0000.0,0007.25,0002.34,0001.84
2023-04-04 08:13:00,,0812.8,4.99,0.00,22.5,21.7,00.0,30.9,24.3,17.0,0000.0,0006.72,0002.39,0001.89
2023-04-04 08:14:00,,0813.0,5.00,0.00,22.7,22.8,00.0,30.9,24.7,16.8,0000.0,0003.92,0002.44,0001.94
2023-04-04 08:15:00,,0813.0,5.01,0.00,22.8,23.3,00.0,30.9,24.8,16.7,0000.0,0003.80,0002.48,0001.99
2023-04-04 08:16:00,,0813.0,5.01,0.00,22.8,23.0,00.0,31.0,24.6,16.6,0000.0,0003.79,0002.54,0002.06
2023-04-04 08:17:00,,0813.0,4.99,0.00,22.8,22.6,00.0,31.0,24.4,16.6,0000.0,0003.75,0002.58,0002.13
2023-04-04 08:18:00,,0812.9,5.01,0.00,22.7,22.2,00.0,31.1,24.3,16.6,0000.0,0003.78,0002.65,0002.21
2023-04-04 08:19:00,,0813.0,5.01,0.00,22.7,21.9,00.0,31.1,24.2,16.5,0000.0,0003.86,0002.73,0002.28
2023-04-04 08:20:00,,0813.0,4.99,0.00,22.6,21.5,00.0,31.0,24.1,16.6,0000.0,0003.96,0002.80,0002.35
2023-04-04 08:21:00,,0813.0,5.00,0.00,22.6,21.3,00.0,31.0,24.1,16.6,0000.0,0004.03,0002.87,0002.42
2023-04-04 08:22:00,,0813.1,5.02,0.00,22.7,21.9,00.0,31.0,24.5,16.6,0000.0,0004.21,0002.97,0002.48
2023-04-04 08:23:00,,0813.2,5.00,0.00,22.8,23.0,00.0,31.0,24.8,16.4,0000.0,0004.17,0003.04,0002.55
2023-04-04 08:24:00,,0813.2,5.00,0.00,23.0,23.5,00.0,31.0,25.0,16.3,0000.0,0004.24,0003.12,0002.64
2023-04-04 08:25:00,,0813.0,4.99,0.00,23.0,23.2,00.0,31.1,24.7,16.3,0000.0,0004.47,0003.19,0002.72
2023-04-04 08:26:00,,0813.0,5.00,0.00,22.9,22.9,00.0,31.2,24.6,16.3,0000.0,0004.61,0003.24,0002.79
2023-04-04 08:27:00,,0812.9,5.02,0.00,22.9,22.5,00.0,31.2,24.5,16.3,0000.0,0004.74,0003.27,0002.86
2023-04-04 08:28:00,,0813.0,4.99,0.00,22.8,22.1,00.0,31.2,24.4,16.3,0000.0,0005.28,0003.32,0002.92
2023-04-04 08:29:00,,0813.0,4.99,0.00,22.8,21.8,00.0,31.2,24.3,16.3,0000.0,0005.52,0003.39,0002.97
2023-04-04 08:30:00,,0813.0,5.00,0.00,22.8,21.5,00.0,31.2,24.2,16.3,0000.0,0005.81,0003.43,0003.01
2023-04-04 08:31:00,,0813.0,5.00,0.00,22.7,21.3,00.0,31.2,24.1,16.3,0000.0,0005.85,0003.43,0003.02
2023-04-04 08:32:00,,0813.0,5.00,0.00,22.7,21.1,00.0,31.1,24.1,16.3,0000.0,0005.83,0003.44,0003.04
2023-04-04 08:33:00,,0813.0,5.00,0.00,22.6,20.9,00.0,31.1,24.0,16.4,0000.0,0005.75,0003.42,0003.06
2023-04-04 08:34:00,,0813.0,5.01,0.00,22.7,21.4,00.0,31.1,24.3,16.4,0000.0,0005.74,0003.43,0003.08
2023-04-04 08:35:00,,0813.0,4.99,0.00,22.8,22.5,00.0,31.0,24.7,16.3,0000.0,0005.66,0003.40,0003.07
2023-04-04 08:36:00,,0813.0,4.99,0.00,22.9,23.3,00.0,31.1,24.9,16.2,0000.0,0005.55,0003.37,0003.04
2023-04-04 08:37:00,,0813.0,5.00,0.00,23.0,23.2,00.0,31.1,24.8,16.1,0000.0,0005.88,0003.34,0003.01
2023-04-04 08:38:00,,0813.0,5.01,0.00,23.0,22.8,00.0,31.2,24.6,16.1,0000.0,0006.05,0003.33,0002.98
2023-04-04 08:39:00,,0812.9,4.99,0.00,22.9,22.4,00.0,31.2,24.5,16.1,0000.0,0005.69,0003.33,0002.97
2023-04-04 08:40:00,,0813.0,5.00,0.00,22.9,22.0,00.0,31.2,24.3,16.2,0000.0,0006.50,0003.32,0002.97
2023-04-04 08:41:00,,0813.0,5.00,0.00,22.8,21.7,00.0,31.2,24.3,16.2,0000.0,0006.66,0003.31,0002.98
2023-04-04 08:42:00,,0813.0,5.00,0.00,22.8,21.4,00.0,31.2,24.2,16.3,0000.0,0007.08,0003.35,0003.00
2023-04-04 08:43:00,,0813.0,5.01,0.00,22.7,21.2,00.0,31.2,24.2,16.3,0000.0,0008.31,0003.36,0003.02
2023-04-04 08:44:00,,0813.0,5.00,0.00,22.7,21.1,00.0,31.2,24.1,16.3,0000.0,0009.00,0003.38,0003.04
2023-04-04 08:45:00,,0813.0,5.00,0.00,22.6,20.9,00.0,31.2,24.0,16.4,0000.0,0009.16,0003.40,0003.06
2023-04-04 08:46:00,,0813.0,5.01,0.00,22.6,21.2,00.0,31.1,24.2,16.4,0000.0,0009.15,0003.40,0003.08
2023-04-04 08:47:00,,0813.0,5.01,0.00,22.8,22.2,00.0,31.1,24.6,16.3,0000.0,0009.17,0003.43,0003.10
2023-04-04 08:48:00,,0813.0,5.00,0.00,22.9,23.2,00.0,31.1,24.9,16.2,0000.0,0008.98,0003.47,0003.13
2023-04-04 08:49:00,,0813.0,4.99,0.00,23.0,23.3,00.0,31.1,24.8,16.1,0000.0,0008.99,0003.51,0003.15
2023-04-04 08:50:00,,0812.9,5.00,0.00,23.0,22.9,00.0,31.2,24.7,16.1,0000.0,0009.00,0003.52,0003.16
2023-04-04 08:51:00,,0812.9,5.01,0.00,22.9,22.5,00.0,31.2,24.5,16.1,0000.0,0008.54,0003.49,0003.16
2023-04-04 08:52:00,,0812.8,5.01,0.00,22.9,22.2,00.0,31.2,24.4,16.2,0000.0,0008.32,0003.47,0003.16
2023-04-04 08:53:00,,0812.8,5.00,0.00,22.8,21.8,00.0,31.2,24.3,16.2,0000.0,0007.95,0003.46,0003.16
2023-04-04 08:54:00,,0812.8,5.00,0.00,22.8,21.5,00.0,31.2,24.3,16.2,0000.0,0006.85,0003.48,0003.16
2023-04-04 08:55:00,,0812.8,5.00,0.00,22.7,21.3,00.0,31.2,24.2,16.3,0000.0,0005.96,0003.46,0003.16
2023-04-04 08:56:00,,0812.8,5.00,0.00,22.7,21.4,00.0,31.2,24.3,16.3,0000.0,0006.07,0003.45,0003.16
2023-04-04 08:57:00,,0812.8,5.01,0.00,22.8,22.4,00.0,31.1,24.7,16.2,0000.0,0006.48,0003.47,0003.16
2023-04-04 08:58:00,,0812.8,4.99,0.00,23.0,23.1,00.0,31.1,24.9,16.0,0000.0,0007.39,0003.45,0003.15
2023-04-04 08:59:00,,0812.7,4.99,0.00,23.0,22.9,00.0,31.2,24.7,16.0,0000.0,0007.42,0003.41,0003.14
